DLH6CR EDDF-EDXW

Flight info

Callsign DLH6CR
Flight time 0h 59m
Altitude 37000
Route MARUN6E MARUN Y150 TOLGI/N0436F380 DCT ELSOB/N0432F370 Y348 OMWEG/N0437F380 DCT BADOS DCT OLDIP
Aircraft A319/M-SDE2E3FGIJ1LORWXYZ/HB1

Departure

Time 2026-05-08 08:53
Airport Frankfurt Main Airport (EDDF)

Arrival

Time 2026-05-08 09:52
Airport Westerland Sylt Airport (EDXW)
Time Latitude Longitude Altitude Speed Heading
2026-05-08 08:28 50.03576 8.53664 337 ft 0 kts 159°
2026-05-08 08:29 50.03584 8.53659 341 ft 0 kts 160°
2026-05-08 08:48 50.03584 8.53660 340 ft 0 kts 159°
2026-05-08 08:49 50.03551 8.53679 339 ft 10 kts 159°
2026-05-08 08:49 50.03495 8.53634 339 ft 11 kts 248°
2026-05-08 08:49 50.03467 8.53513 339 ft 13 kts 249°
2026-05-08 08:50 50.03397 8.53456 338 ft 13 kts 155°
2026-05-08 08:50 50.03335 8.53571 338 ft 14 kts 127°
2026-05-08 08:50 50.03316 8.53707 338 ft 14 kts 60°
2026-05-08 08:50 50.03347 8.53817 340 ft 0 kts 69°
2026-05-08 08:51 50.03349 8.53823 337 ft 1 kts 69°
2026-05-08 08:51 50.03353 8.53840 336 ft 2 kts 69°
2026-05-08 08:51 50.03360 8.53869 340 ft 3 kts 69°
2026-05-08 08:52 50.03370 8.53907 340 ft 4 kts 69°
2026-05-08 08:52 50.03409 8.54070 344 ft 50 kts 70°
2026-05-08 08:52 50.03628 8.54989 350 ft 127 kts 70°
2026-05-08 08:52 50.03985 8.56496 701 ft 157 kts 70°
2026-05-08 08:53 50.04363 8.58097 1550 ft 157 kts 70°
2026-05-08 08:53 50.04757 8.59762 2205 ft 174 kts 70°
2026-05-08 08:53 50.05215 8.61637 2718 ft 197 kts 66°
2026-05-08 08:53 50.06179 8.63237 3322 ft 215 kts 28°
2026-05-08 08:54 50.07663 8.63612 4230 ft 220 kts 358°
2026-05-08 08:54 50.09198 8.63495 5251 ft 223 kts 357°
2026-05-08 08:54 50.10763 8.63376 6175 ft 230 kts 356°
2026-05-08 08:54 50.12429 8.63251 6827 ft 248 kts 355°
2026-05-08 08:55 50.14239 8.63120 7457 ft 270 kts 356°
2026-05-08 08:55 50.16152 8.62987 8346 ft 280 kts 356°
2026-05-08 08:55 50.18120 8.62856 9364 ft 286 kts 356°
2026-05-08 08:55 50.20134 8.62720 10342 ft 293 kts 356°
2026-05-08 08:56 50.22228 8.62573 10831 ft 316 kts 356°
2026-05-08 08:56 50.24470 8.62421 11588 ft 327 kts 356°
2026-05-08 08:56 50.26757 8.62270 12510 ft 332 kts 356°
2026-05-08 08:56 50.29084 8.62115 13461 ft 336 kts 356°
2026-05-08 08:57 50.31434 8.61958 14340 ft 340 kts 356°
2026-05-08 08:57 50.33810 8.61822 15165 ft 344 kts 357°
2026-05-08 08:57 50.36219 8.61781 15988 ft 348 kts 358°
2026-05-08 08:57 50.38656 8.61799 16804 ft 352 kts 358°
2026-05-08 08:58 50.41119 8.61836 17622 ft 356 kts 359°
2026-05-08 08:58 50.43609 8.61871 18420 ft 359 kts 358°
2026-05-08 08:58 50.46125 8.62107 19117 ft 364 kts
2026-05-08 08:58 50.48658 8.62470 19827 ft 368 kts
2026-05-08 08:59 50.51223 8.62839 20528 ft 372 kts
2026-05-08 08:59 50.53812 8.63210 21229 ft 375 kts
2026-05-08 08:59 50.56428 8.63582 21940 ft 379 kts
2026-05-08 08:59 50.59070 8.63951 22626 ft 383 kts
2026-05-08 09:00 50.61737 8.64321 23301 ft 387 kts
2026-05-08 09:00 50.64434 8.64695 23928 ft 391 kts
2026-05-08 09:00 50.67161 8.65071 24503 ft 395 kts
2026-05-08 09:00 50.69910 8.65456 25063 ft 398 kts
2026-05-08 09:01 50.72684 8.65846 25622 ft 402 kts
2026-05-08 09:01 50.75482 8.66245 26171 ft 405 kts
2026-05-08 09:01 50.78274 8.67059 26687 ft 412 kts 14°
2026-05-08 09:01 50.80955 8.68731 27203 ft 418 kts 25°
2026-05-08 09:02 50.83424 8.71216 27720 ft 424 kts 37°
2026-05-08 09:02 50.85571 8.74433 28239 ft 429 kts 48°
2026-05-08 09:02 50.87407 8.78188 28724 ft 433 kts 52°
2026-05-08 09:02 50.89230 8.82011 29222 ft 436 kts 52°
2026-05-08 09:03 50.91066 8.85858 29726 ft 439 kts 52°
2026-05-08 09:03 50.92918 8.89730 30205 ft 443 kts 52°
2026-05-08 09:03 50.94787 8.93637 30610 ft 446 kts 52°
2026-05-08 09:03 50.96669 8.97576 31004 ft 449 kts 52°
2026-05-08 09:04 50.98561 9.01547 31396 ft 453 kts 52°
2026-05-08 09:04 51.00466 9.05554 31812 ft 455 kts 52°
2026-05-08 09:04 51.02343 9.09512 32352 ft 454 kts 52°
2026-05-08 09:04 51.04237 9.13519 32895 ft 453 kts 52°
2026-05-08 09:05 51.06128 9.17523 33429 ft 453 kts 52°
2026-05-08 09:05 51.08093 9.21439 33954 ft 452 kts 45°
2026-05-08 09:05 51.10395 9.24827 34423 ft 449 kts 36°
2026-05-08 09:05 51.12997 9.27551 34831 ft 447 kts 26°
2026-05-08 09:06 51.15829 9.29559 35215 ft 444 kts 16°
2026-05-08 09:06 51.18805 9.30825 35588 ft 442 kts
2026-05-08 09:06 51.21811 9.31853 35978 ft 442 kts
2026-05-08 09:06 51.24824 9.32891 36369 ft 442 kts
2026-05-08 09:07 51.27840 9.33939 36730 ft 443 kts 10°
2026-05-08 09:07 51.30856 9.34991 37056 ft 444 kts 10°
2026-05-08 09:07 51.36870 9.37090 37164 ft 439 kts 10°
2026-05-08 09:08 51.42776 9.39153 37167 ft 437 kts 10°
2026-05-08 09:08 51.48703 9.41224 37167 ft 436 kts 10°
2026-05-08 09:09 51.54638 9.43292 37163 ft 436 kts
2026-05-08 09:09 51.60562 9.45367 37168 ft 436 kts 10°
2026-05-08 09:10 51.66490 9.47464 37182 ft 436 kts 10°
2026-05-08 09:10 51.72409 9.49566 37180 ft 435 kts 10°
2026-05-08 09:11 51.78325 9.51669 37178 ft 435 kts 10°
2026-05-08 09:11 51.83260 9.53218 37175 ft 433 kts
2026-05-08 09:12 51.89256 9.53477 37171 ft 431 kts 358°
2026-05-08 09:12 51.95257 9.53608 37177 ft 431 kts 358°
2026-05-08 09:13 52.01250 9.53748 37176 ft 430 kts 358°
2026-05-08 09:13 52.07241 9.53892 37175 ft 430 kts 358°
2026-05-08 09:14 52.13234 9.54049 37174 ft 430 kts 358°
2026-05-08 09:14 52.19232 9.54213 37191 ft 430 kts 358°
2026-05-08 09:15 52.25183 9.54359 37189 ft 430 kts 358°
2026-05-08 09:15 52.31178 9.54505 37191 ft 430 kts 358°
2026-05-08 09:16 52.37164 9.54656 37189 ft 430 kts 358°
2026-05-08 09:16 52.43147 9.54796 37201 ft 430 kts 358°
2026-05-08 09:17 52.49138 9.54939 37200 ft 430 kts 358°
2026-05-08 09:17 52.55125 9.55085 37199 ft 430 kts 358°
2026-05-08 09:18 52.61080 9.55239 37190 ft 430 kts 358°
2026-05-08 09:18 52.67069 9.55398 37205 ft 430 kts 358°
2026-05-08 09:19 52.73048 9.55552 37193 ft 430 kts 358°
2026-05-08 09:19 52.79033 9.55715 37202 ft 429 kts 358°
2026-05-08 09:20 52.84971 9.55870 37187 ft 429 kts 358°
2026-05-08 09:20 52.90947 9.56017 37199 ft 429 kts 358°
2026-05-08 09:21 52.96916 9.56169 37199 ft 429 kts 358°
2026-05-08 09:23 53.17784 9.56708 37199 ft 429 kts 358°
2026-05-08 09:23 53.23747 9.56849 37199 ft 429 kts 358°
2026-05-08 09:24 53.29720 9.57002 37196 ft 429 kts 358°
2026-05-08 09:24 53.35694 9.57166 37207 ft 429 kts 358°
2026-05-08 09:25 53.41672 9.57328 37200 ft 429 kts 358°
2026-05-08 09:25 53.47644 9.57481 37208 ft 429 kts 358°
2026-05-08 09:25 53.50628 9.57559 36714 ft 437 kts 358°
2026-05-08 09:26 53.53664 9.57642 36213 ft 434 kts 359°
2026-05-08 09:26 53.56670 9.57723 35692 ft 431 kts 358°
2026-05-08 09:26 53.59656 9.57805 35176 ft 428 kts 358°
2026-05-08 09:26 53.62631 9.57886 34647 ft 426 kts 359°
2026-05-08 09:27 53.65583 9.57831 34110 ft 422 kts 353°
2026-05-08 09:27 53.68478 9.57209 33575 ft 417 kts 349°
2026-05-08 09:27 53.71343 9.56535 33080 ft 413 kts 350°
2026-05-08 09:27 53.74172 9.55876 32585 ft 409 kts 350°
2026-05-08 09:28 53.76977 9.55226 32110 ft 405 kts 350°
2026-05-08 09:28 53.79755 9.54584 31641 ft 401 kts 350°
2026-05-08 09:28 53.82478 9.53955 31180 ft 397 kts 350°
2026-05-08 09:28 53.85207 9.53321 30735 ft 394 kts 350°
2026-05-08 09:29 53.87910 9.52689 30285 ft 391 kts 350°
2026-05-08 09:29 53.90595 9.52060 29815 ft 388 kts 350°
2026-05-08 09:29 53.93255 9.51432 29390 ft 383 kts 350°
2026-05-08 09:29 53.95885 9.50806 28971 ft 379 kts 350°
2026-05-08 09:30 53.98484 9.50145 28578 ft 375 kts 346°
2026-05-08 09:30 54.00959 9.48919 28179 ft 368 kts 336°
2026-05-08 09:30 54.03248 9.47025 27771 ft 362 kts 327°
2026-05-08 09:30 54.05412 9.44885 27363 ft 358 kts 328°
2026-05-08 09:31 54.07553 9.42772 26965 ft 354 kts 328°
2026-05-08 09:31 54.09678 9.40674 26553 ft 351 kts 328°
2026-05-08 09:31 54.11776 9.38603 26147 ft 347 kts 328°
2026-05-08 09:31 54.13835 9.36570 25731 ft 345 kts 328°
2026-05-08 09:32 54.15930 9.34501 25309 ft 342 kts 328°
2026-05-08 09:32 54.17959 9.32500 24879 ft 340 kts 328°
2026-05-08 09:32 54.20003 9.30481 24449 ft 339 kts 328°
2026-05-08 09:32 54.22041 9.28462 24015 ft 337 kts 328°
2026-05-08 09:33 54.24070 9.26446 23540 ft 336 kts 328°
2026-05-08 09:33 54.26086 9.24442 23095 ft 334 kts 328°
2026-05-08 09:33 54.28085 9.22454 22681 ft 331 kts 327°
2026-05-08 09:33 54.30061 9.20480 22264 ft 328 kts 327°
2026-05-08 09:34 54.32025 9.18510 21869 ft 326 kts 327°
2026-05-08 09:34 54.33973 9.16549 21470 ft 324 kts 328°
2026-05-08 09:34 54.35911 9.14595 21066 ft 322 kts 326°
2026-05-08 09:34 54.37693 9.12305 20669 ft 318 kts 316°
2026-05-08 09:35 54.39237 9.09669 20282 ft 317 kts 313°
2026-05-08 09:35 54.40791 9.06976 19883 ft 316 kts 313°
2026-05-08 09:35 54.42338 9.04293 19494 ft 316 kts 313°
2026-05-08 09:35 54.43884 9.01610 19111 ft 315 kts 312°
2026-05-08 09:36 54.45427 8.98931 18725 ft 315 kts 313°
2026-05-08 09:36 54.46967 8.96258 18321 ft 314 kts 313°
2026-05-08 09:36 54.48499 8.93594 17933 ft 312 kts 312°
2026-05-08 09:36 54.50022 8.90943 17541 ft 311 kts 312°
2026-05-08 09:37 54.51535 8.88305 17170 ft 309 kts 312°
2026-05-08 09:37 54.53041 8.85671 16806 ft 307 kts 312°
2026-05-08 09:37 54.54537 8.83051 16452 ft 306 kts 313°
2026-05-08 09:37 54.56030 8.80437 16096 ft 305 kts 313°
2026-05-08 09:38 54.57515 8.77833 15743 ft 304 kts 313°
2026-05-08 09:38 54.58977 8.75264 15387 ft 303 kts 313°
2026-05-08 09:38 54.60454 8.72661 15027 ft 303 kts 313°
2026-05-08 09:38 54.61771 8.69849 14673 ft 301 kts 301°
2026-05-08 09:39 54.62718 8.66646 14319 ft 299 kts 292°
2026-05-08 09:39 54.63564 8.63360 13967 ft 299 kts 292°
2026-05-08 09:39 54.64416 8.60076 13574 ft 299 kts 292°
2026-05-08 09:39 54.65263 8.56818 13217 ft 297 kts 292°
2026-05-08 09:40 54.66106 8.53573 12856 ft 295 kts 293°
2026-05-08 09:40 54.66942 8.50349 12495 ft 293 kts 293°
2026-05-08 09:40 54.67771 8.47139 12133 ft 292 kts 293°
2026-05-08 09:40 54.68594 8.43941 11774 ft 291 kts 293°
2026-05-08 09:41 54.69415 8.40753 11409 ft 289 kts 293°
2026-05-08 09:41 54.70231 8.37583 11030 ft 288 kts 292°
2026-05-08 09:41 54.71043 8.34420 10654 ft 287 kts 292°
2026-05-08 09:41 54.71851 8.31261 10275 ft 287 kts 292°
2026-05-08 09:42 54.72734 8.28164 9707 ft 292 kts 302°
2026-05-08 09:42 54.74072 8.25503 9209 ft 294 kts 319°
2026-05-08 09:42 54.75774 8.23589 8781 ft 291 kts 336°
2026-05-08 09:42 54.77623 8.22282 8359 ft 289 kts 339°
2026-05-08 09:43 54.79478 8.20979 7937 ft 287 kts 339°
2026-05-08 09:43 54.81319 8.19674 7580 ft 282 kts 339°
2026-05-08 09:43 54.83089 8.18408 7454 ft 269 kts 339°
2026-05-08 09:43 54.84777 8.17201 7331 ft 256 kts 339°
2026-05-08 09:44 54.86391 8.16046 7211 ft 246 kts 339°
2026-05-08 09:44 54.87944 8.14939 7084 ft 236 kts 339°
2026-05-08 09:44 54.89418 8.13892 6954 ft 221 kts 339°
2026-05-08 09:44 54.90790 8.12913 6871 ft 207 kts 339°
2026-05-08 09:45 54.92099 8.11980 6481 ft 204 kts 340°
2026-05-08 09:45 54.93430 8.11031 5897 ft 207 kts 339°
2026-05-08 09:45 54.94765 8.10076 5334 ft 207 kts 339°
2026-05-08 09:45 54.96091 8.09151 4892 ft 201 kts 343°
2026-05-08 09:46 54.97385 8.08888 4712 ft 179 kts
2026-05-08 09:46 54.98513 8.09359 4592 ft 160 kts 26°
2026-05-08 09:46 54.99438 8.10350 4293 ft 153 kts 45°
2026-05-08 09:46 55.00123 8.11726 4029 ft 150 kts 60°
2026-05-08 09:47 55.00733 8.13211 3781 ft 151 kts 59°
2026-05-08 09:47 55.01346 8.14688 3538 ft 150 kts 58°
2026-05-08 09:47 55.01929 8.16134 3284 ft 139 kts 64°
2026-05-08 09:47 55.02216 8.17678 3074 ft 131 kts 87°
2026-05-08 09:48 55.02168 8.19236 2870 ft 127 kts 107°
2026-05-08 09:48 55.01827 8.20619 2673 ft 123 kts 125°
2026-05-08 09:48 55.01252 8.21699 2478 ft 122 kts 141°
2026-05-08 09:48 55.00552 8.22564 2286 ft 124 kts 143°
2026-05-08 09:49 54.99852 8.23434 2089 ft 124 kts 144°
2026-05-08 09:49 54.99152 8.24305 1897 ft 124 kts 144°
2026-05-08 09:49 54.98453 8.25177 1725 ft 123 kts 144°
2026-05-08 09:49 54.97761 8.26054 1533 ft 123 kts 143°
2026-05-08 09:50 54.97069 8.26925 1356 ft 123 kts 143°
2026-05-08 09:50 54.96372 8.27798 1188 ft 124 kts 143°
2026-05-08 09:50 54.95674 8.28669 1030 ft 123 kts 143°
2026-05-08 09:50 54.94981 8.29530 845 ft 122 kts 144°
2026-05-08 09:51 54.94290 8.30378 668 ft 122 kts 146°
2026-05-08 09:51 54.93600 8.31209 481 ft 122 kts 147°
2026-05-08 09:51 54.92908 8.32060 280 ft 122 kts 147°
2026-05-08 09:51 54.92230 8.32932 154 ft 118 kts 146°
2026-05-08 09:52 54.91613 8.33688 48 ft 94 kts 146°
2026-05-08 09:52 54.91205 8.34190 45 ft 47 kts 145°
2026-05-08 09:52 54.91090 8.34331 47 ft 0 kts 145°
2026-05-08 09:52 54.91086 8.34336 47 ft 2 kts 145°
2026-05-08 09:53 54.91068 8.34347 47 ft 4 kts 175°
2026-05-08 09:53 54.91059 8.34365 47 ft 2 kts 59°
2026-05-08 09:53 54.91072 8.34358 47 ft 4 kts 328°
2026-05-08 09:53 54.91109 8.34316 47 ft 10 kts 325°
2026-05-08 09:54 54.91185 8.34222 45 ft 16 kts 323°
2026-05-08 09:54 54.91282 8.34101 44 ft 18 kts 324°
2026-05-08 09:54 54.91272 8.33900 39 ft 21 kts 239°
2026-05-08 09:54 54.91194 8.33662 37 ft 23 kts 241°
2026-05-08 09:55 54.91112 8.33400 37 ft 25 kts 242°
2026-05-08 09:55 54.91111 8.33185 36 ft 19 kts 356°
2026-05-08 09:55 54.91240 8.33184 36 ft 19 kts 359°
2026-05-08 09:55 54.91322 8.33225 33 ft 7 kts 14°
2026-05-08 09:56 54.91352 8.33181 32 ft 5 kts 281°
2026-05-08 09:56 54.91352 8.33166 29 ft 0 kts 268°
2026-05-08 09:56 54.91352 8.33165 29 ft 1 kts 268°
2026-05-08 09:56 54.91352 8.33145 31 ft 0 kts 270°